Flag for United Kingdom Weather past 2 weeks in Wakefield, England, United Kingdom

Now
50 °F

Clear.


Feels Like: 49 °F
Forecast: 52 / 63 °F
Wind: 3 mph from Northwest

Location: Leeds And Bradford

Current Time: Aug 30, 2015 at 7:05:55 AM

Latest Report: Aug 30, 2015 at 6:20 AM


Visibility: 10 mi

Pressure: 30.07 "Hg

Humidity: 94%

Dew point: 48 °F

Location of WakefieldLocation

Historic Weather in Wakefield — Graph

°F

Wakefield temperature yesterday

Maximum temperature yesterday: 64 °F (at 2:50 PM)
Minimum temperature yesterday: 54 °F (at 12:20 AM)
Average temperature yesterday: 58 °F

Past Weeks' High & Low Weather Summary

 TemperatureHumidityPressure
High73 °F (Aug 22, 4:20 PM)100% (Aug 16, 5:20 AM)30.12 "Hg (Aug 16, 5:20 AM)
Low45 °F (Aug 16, 3:50 AM)56% (Aug 17, 12:20 PM)29.45 "Hg (Aug 26, 6:20 AM)
Average58 °F84%29.85 "Hg
* Reported Aug 15 6:20 AM — Aug 30 6:20 AM, Wakefield, Weather by CustomWeather, © 2015

Note: Actual official high and low records may vary slightly from our data, if they occured in-between our weather recording intervals... More about our weather records

Advertising

Wakefield weather history for previous 24 hours

 ConditionsComfort  
Time TempWeatherWind HumidityBarometerVisibility
6:20 AM
Sun, Aug 30
50 °FClear.3 mph94%30.07 "Hg10 mi
5:50 AM52 °FClear.5 mph88%30.07 "Hg10 mi
5:20 AM52 °FClear.6 mph88%30.09 "Hg10 mi
4:50 AM52 °FClear.6 mph88%30.09 "Hg10 mi
4:20 AM52 °FClear.7 mph88%30.07 "Hg10 mi
3:50 AM52 °FClear.5 mph88%30.09 "Hg10 mi
3:20 AM52 °FClear.3 mph88%30.07 "Hg10 mi
2:50 AM52 °FClear.5 mph88%30.07 "Hg10 mi
2:20 AM52 °FClear.6 mph88%30.09 "Hg10 mi
1:50 AM52 °FClear.5 mph88%30.09 "Hg10 mi
1:20 AM54 °FPassing clouds.7 mph82%30.09 "HgN/A
12:50 AM54 °FClear.7 mph82%30.09 "Hg10 mi
12:20 AM54 °FClear.7 mph82%30.09 "Hg10 mi
11:50 PM
Sat, Aug 29
55 °FClear.8 mph82%30.09 "Hg10 mi
11:20 PM55 °FClear.7 mph82%30.09 "Hg10 mi
10:20 PM55 °FClear.8 mph82%30.09 "Hg10 mi
9:50 PM57 °FPassing clouds.3 mph77%30.09 "HgN/A
9:20 PM57 °FPassing clouds.3 mph82%30.07 "HgN/A
8:50 PM57 °FPassing clouds.8 mph82%30.07 "HgN/A
8:20 PM59 °FPassing clouds.3 mph82%30.07 "HgN/A
7:50 PM61 °FPassing clouds.6 mph77%30.07 "HgN/A
7:20 PM63 °FPassing clouds.7 mph77%30.07 "HgN/A
6:50 PM63 °FPassing clouds.6 mph83%30.04 "HgN/A
6:20 PM63 °FScattered clouds.9 mph77%30.04 "HgN/A
5:50 PM63 °FScattered clouds.10 mph77%30.04 "HgN/A
5:20 PM64 °FScattered clouds.10 mph73%30.04 "HgN/A
4:50 PM63 °FScattered clouds.9 mph73%30.04 "HgN/A
4:20 PM63 °FScattered clouds.8 mph77%30.04 "HgN/A
3:50 PM63 °FScattered clouds.12 mph77%30.04 "HgN/A
3:20 PM64 °FScattered clouds.12 mph73%30.04 "HgN/A
2:50 PM64 °FScattered clouds.12 mph73%30.04 "HgN/A
2:20 PM63 °FScattered clouds.8 mph77%30.04 "HgN/A
1:50 PM63 °FScattered clouds.10 mph77%30.04 "HgN/A
1:20 PM63 °FScattered clouds.12 mph73%30.04 "HgN/A
12:50 PM63 °FScattered clouds.12 mph73%30.04 "HgN/A
12:20 PM63 °FScattered clouds.12 mph73%30.04 "HgN/A
11:50 AM63 °FScattered clouds.10 mph73%30.04 "HgN/A
10:50 AM61 °FScattered clouds.13 mph77%30.04 "HgN/A
10:20 AM61 °FScattered clouds.12 mph77%30.04 "HgN/A
9:50 AM61 °FScattered clouds.9 mph77%30.04 "HgN/A
9:20 AM59 °FScattered clouds.9 mph82%30.04 "HgN/A
8:50 AM59 °FPassing clouds.10 mph82%30.04 "HgN/A
8:20 AM55 °FPassing clouds.9 mph88%30.04 "HgN/A
7:50 AM55 °FPassing clouds.8 mph88%30.04 "HgN/A
Weather by CustomWeather, © 2015

See weather overviewHow to use our weather pages